Location: Gull Harbor
(47.1000°N, 122.9000°W)
Time: 13:26:37
(UTC-07:00)

BlueWalker 3 - Pass Details

Date: 07 February 2023
Orbit: 497 x 514 km, 53.2° (Epoch: 01 April)

Event Time Altitude Azimuth Distance (km) Brightness Sun altitude
Rises 18:39:12 0° 297° (WNW) 2,606 6.5 -13.3°
Reaches altitude 10° 18:41:26 10° 303° (WNW) 1,724 5.4 -13.6°
Maximum altitude 18:45:13 48° 19° (NNE) 671 2.3 -14.3°
Enters shadow 18:47:01 27° 80° (E) 1,009 2.8 -14.6°
